Location: Bothwell
(41.7170°N, 112.2589°W)
Time: 18:41:26
(UTC+00:00)

ACS3 Solar Sail - Pass Details

Date: 23 April 2026
Orbit: 894 x 947 km, 97.2° (Epoch: 12 May)

Event Time Altitude Azimuth Distance (km) Brightness Sun altitude
Rises 10:02:04 0° 357° (N) 3,553 5.4 -25.1°
Reaches altitude 10° 10:05:05 10° 342° (NNW) 2,616 4.4 -24.7°
Maximum altitude 10:09:12 20° 297° (WNW) 1,983 3.2 -24.1°
Enters shadow 10:09:34 20° 292° (WNW) 1,989 3.2 -24.1°
